[[{"header":{"parameterUnit":"m.s-1","parameterCategory":1,"la1":30.2991,"la2":30.254,"lo1":-89.0895,"lo2":-89.0444,"dy":0.0017,"dx":0.0017,"nx":28,"ny":28,"refTime":"2023-04-05T15:00:00:Z","depth":0,"parameterNumber":2,"parameterNumberName":"U-component_of_WINDS"},"data":[0,0,0,0,0,0,0,0,0,0,0,0,0,0,0,0,0,0,0,0,0,0,0,0,0,0,0,0,0,0,0,0,0,0,0,0,0,0,0,0,0,0,0,0,0,0,0,0,0,0,0,0,0,0,0,0,0,0,-3.2269,-3.2268,0,-3.2239,-3.2238,-3.2238,-3.2139,-3.2136,-3.2134,-3.2132,-3.2103,-3.2105,-3.2106,0,0,0,0,0,0,0,0,0,0,0,0,0,-3.2243,-3.2244,-3.2269,-3.2268,-3.2268,-3.2239,-3.2238,-3.2238,-3.2139,-3.2136,-3.2134,-3.2131,-3.2103,-3.2105,-3.2106,0,0,0,0,0,0,0,0,0,0,0,0,0,-3.2238,-3.2244,-3.2269,-3.2215,-3.221,-3.2239,-3.2238,-3.2238,-3.214,-3.2136,-3.2133,-3.213,-3.2103,-3.2104,-3.2106,-3.2185,0,0,-3.2112,-3.2113,0,0,0,0,0,0,0,0,-3.2238,-3.2239,-3.2223,-3.2219,-3.2213,-3.2189,-3.2219,-3.222,-3.214,-3.2166,-3.2132,-3.2128,-3.2135,-3.2134,-3.2136,-3.2184,-3.2183,-3.2113,-3.2114,-3.2115,-3.2115,0,0,0,0,0,0,0,-3.2239,-3.224,-3.2257,-3.2223,-3.2217,-3.2193,-3.2189,-3.2218,-3.217,-3.2164,-3.2157,-3.2154,-3.2131,-3.2134,-3.2134,-3.2182,-3.2113,-3.2114,-3.2115,-3.2116,-3.2294,-3.2298,0,0,0,0,0,0,-3.2246,-3.2241,-3.2258,-3.2256,-3.2218,-3.2196,-3.2191,-3.22,-3.2169,-3.2161,-3.2157,-3.215,-3.2132,-3.2132,-3.2133,-3.2223,-3.2115,-3.2116,-3.2118,-3.2291,-3.2295,-3.2299,0,0,0,0,0,0,-3.2246,-3.2249,-3.2259,-3.2246,-3.2246,-3.22,-3.2211,-3.2201,-3.2204,-3.2164,-3.2155,-3.2169,-3.213,-3.213,-3.2173,-3.222,-3.2117,-3.2119,-3.2287,-3.2292,-3.2297,-3.2404,0,0,0,0,0,0,-3.2246,-3.2249,-3.2278,-3.2248,-3.2247,-3.2299,-3.2214,-3.2203,-3.2207,-3.2197,-3.2172,-3.2165,-3.2127,-3.2171,-3.2175,-3.2221,-3.2121,-3.2282,-3.2289,-3.2295,-3.2396,-3.2412,-3.2426,0,0,0,0,0,-3.2245,-3.231,-3.228,-3.2283,-3.2282,-3.2302,-3.2302,-3.2256,-3.2211,-3.224,-3.2215,-3.2166,-3.2215,-3.2176,-3.218,-3.2228,-3.2279,-3.2287,-3.2295,-3.2389,-3.2409,-3.2426,0,0,0,0,0,0,-3.2348,-3.2305,-3.2271,-3.2328,-3.2319,-3.2285,-3.232,-3.2278,-3.2283,-3.2273,-3.2217,-3.2212,-3.2263,-3.225,-3.2207,-3.2302,-3.2239,-3.2248,-3.2309,-3.2328,-3.2343,-3.2344,-3.2122,0,0,0,0,0,-3.2377,-3.2397,-3.2358,-3.2412,-3.2409,-3.2366,-3.2373,-3.2339,-3.2328,-3.2324,-3.2301,-3.2293,-3.2306,-3.2316,-3.2327,-3.2394,-3.2387,-3.2429,-3.2444,-3.2457,-3.2465,-3.25,-3.2518,-3.2325,-3.2325,-3.2325,0,0,-3.2438,-3.2417,-3.2432,-3.2432,-3.2421,-3.2443,-3.2363,-3.239,-3.2405,-3.2328,-3.2366,-3.235,-3.2337,-3.2393,-3.2416,-3.2383,-3.2517,-3.2467,-3.2477,-3.2479,-3.251,-3.2528,-3.2544,-3.233,-3.2329,-3.2329,0,0,-3.2559,-3.2545,-3.2588,-3.2579,-3.2563,-3.2534,-3.2545,-3.2517,-3.2503,-3.2541,-3.2483,-3.2502,-3.2526,-3.2519,-3.2519,-3.2639,-3.2594,-3.2644,-3.2723,-3.2757,-3.2772,-3.2786,-3.2828,-3.2844,-3.2653,-3.2653,-3.2653,0,-3.2636,-3.2665,-3.2615,-3.2645,-3.2647,-3.2578,-3.2621,-3.2615,-3.2604,-3.2607,-3.2571,-3.26,-3.2587,-3.2639,-3.2669,-3.2671,-3.2682,-3.2646,-3.2774,-3.2787,-3.2798,-3.2838,-3.2854,-3.2659,-3.2659,-3.2658,-3.2657,0,-3.2761,-3.2783,-3.2819,-3.281,-3.2816,-3.2853,-3.2809,-3.2822,-3.2787,-3.2763,-3.2802,-3.2784,-3.2789,-3.28,-3.2767,-3.2848,-3.2828,-3.2784,-3.2718,-3.2824,-3.286,-3.2875,-3.2668,-3.2666,-3.2664,-3.2663,0,0,-3.2944,-3.2907,-3.2921,-3.2916,-3.2895,-3.2911,-3.2945,-3.295,-3.2961,-3.2957,-3.2984,-3.3007,-3.2966,-3.2966,-3.2932,-3.2962,-3.3058,-3.2914,-3.2913,-3.2941,-3.3147,-3.3179,-3.3198,-3.3029,-3.3032,-3.3034,-3.3147,0,-3.3058,-3.3113,-3.307,-3.3133,-3.3152,-3.3087,-3.3117,-3.3108,-3.3086,-3.31,-3.3076,-3.3093,-3.3038,-3.3038,-3.3065,-3.3041,-3.3099,-3.3032,-3.3054,-3.3055,-3.3058,-3.3217,-3.3251,-3.3359,-3.3161,-3.3164,-3.3165,0,-3.3198,-3.3199,-3.3264,-3.3239,-3.3245,-3.3273,-3.3273,-3.3288,-3.3276,-3.3258,-3.3259,-3.3217,-3.325,-3.3187,-3.3231,-3.3187,-3.3194,-3.3183,-3.3186,-3.3186,-3.3116,-3.3219,-3.3392,-3.3408,-3.3187,-3.3186,-3.3184,0,-3.3324,-3.3342,-3.3383,-3.3381,-3.3353,-3.3373,-3.3363,-3.3348,-3.3354,-3.3355,-3.3358,-3.3364,-3.3367,-3.3373,-3.3334,-3.3292,-3.3383,-3.3317,-3.3369,-3.3371,-3.339,-3.3389,-3.3566,-3.3397,-3.3397,-3.3397,-3.3396,0,-3.3455,-3.3497,-3.3439,-3.3465,-3.351,-3.3461,-3.3508,-3.349,-3.3478,-3.3499,-3.3444,-3.3466,-3.3413,-3.343,-3.34,-3.3441,-3.3443,-3.343,-3.3421,-3.3434,-3.3435,-3.3436,-3.3427,-3.3401,-3.34,-3.3399,-3.3398,0,-3.3603,-3.3566,-3.3606,-3.3576,-3.357,-3.3605,-3.3579,-3.3602,-3.3577,-3.3605,-3.3608,-3.357,-3.3586,-3.3548,-3.3559,-3.3539,-3.3597,-3.3577,-3.3601,-3.3595,-3.3649,-3.3644,-3.3831,-3.3853,-3.3671,-3.3673,-3.3675,0,-3.3688,-3.3719,-3.3692,-3.3702,-3.3694,-3.3711,-3.3717,-3.367,-3.3678,-3.3668,-3.3692,-3.3704,-3.371,-3.374,-3.3713,-3.3722,-3.3701,-3.3766,-3.3701,-3.3713,-3.37,-3.3699,-3.3701,-3.3779,-3.3781,-3.3783,-3.3784,0,-3.3843,-3.3824,-3.3833,-3.3837,-3.3845,-3.3846,-3.3843,-3.3854,-3.3804,-3.3817,-3.3832,-3.3838,-3.3849,-3.3861,-3.3864,-3.3854,-3.3811,-3.3805,-3.3817,-3.383,-3.3842,-3.3835,-3.3636,-3.38,-3.3799,-3.3798,-3.3797,-3.3796,-3.3962,-3.3986,-3.3971,-3.3984,-3.3976,-3.3975,-3.3995,-3.3972,-3.3984,-3.3989,-3.3961,-3.3983,-3.3972,-3.3971,-3.3965,-3.3982,-3.3953,-3.3971,-3.3975,-3.398,-3.3989,-3.3841,-3.3983,-3.3982,-3.3982,-3.3981,-3.3981,0,-3.4113,-3.41,-3.4112,-3.411,-3.412,-3.4079,-3.4074,-3.4085,-3.4105,-3.4098,-3.4106,-3.4124,-3.4136,-3.4111,-3.4119,-3.4138,-3.4119,-3.4142,-3.4139,-3.4137,-3.4015,-3.4003,-3.4157,-3.4157,-3.4157,-3.4157,-3.4157,-3.4157,-3.4193,-3.4231,-3.421,-3.4245,-3.4233,-3.4253,-3.4253,-3.4252,-3.4246,-3.4269,-3.4278,-3.4262,-3.4248,-3.4255,-3.4264,-3.4257,-3.4262,-3.4292,-3.4277,-3.4163,-3.4146,-3.4129,-3.4118,-3.4293,-3.4294,-3.4398,-3.4399,-3.4399]},{"header":{"parameterUnit":"m.s-1","parameterCategory":1,"la1":30.2991,"la2":30.254,"lo1":-89.0895,"lo2":-89.0444,"dy":0.0017,"dx":0.0017,"nx":28,"ny":28,"refTime":"2023-04-05T15:00:00:Z","depth":0,"parameterNumber":3,"parameterNumberName":"V-component_of_WINDS"},"data":[0,0,0,0,0,0,0,0,0,0,0,0,0,0,0,0,0,0,0,0,0,0,0,0,0,0,0,0,0,0,0,0,0,0,0,0,0,0,0,0,0,0,0,0,0,0,0,0,0,0,0,0,0,0,0,0,0,0,-0.0203,-0.0203,0,-0.0184,-0.0184,-0.0184,-0.0179,-0.0179,-0.0179,-0.0179,-0.016,-0.0159,-0.0159,0,0,0,0,0,0,0,0,0,0,0,0,0,-0.0235,-0.0234,-0.0203,-0.0203,-0.0203,-0.0184,-0.0184,-0.0183,-0.0179,-0.0179,-0.0179,-0.0179,-0.016,-0.0159,-0.0159,0,0,0,0,0,0,0,0,0,0,0,0,0,-0.0219,-0.0234,-0.0203,-0.0198,-0.0198,-0.0184,-0.0184,-0.0183,-0.0179,-0.0179,-0.0179,-0.018,-0.016,-0.0159,-0.0158,-0.0149,0,0,-0.0156,-0.0155,0,0,0,0,0,0,0,0,-0.022,-0.0218,-0.0199,-0.0199,-0.0198,-0.0184,-0.0188,-0.0172,-0.0179,-0.0186,-0.0179,-0.018,-0.0168,-0.0166,-0.0162,-0.0148,-0.0147,-0.0155,-0.0155,-0.0154,-0.0154,0,0,0,0,0,0,0,-0.0221,-0.0219,-0.0196,-0.0199,-0.0198,-0.0196,-0.0194,-0.0185,-0.0176,-0.0185,-0.0185,-0.0183,-0.0167,-0.0163,-0.0162,-0.0147,-0.0155,-0.0155,-0.0154,-0.0154,-0.012,-0.012,0,0,0,0,0,0,-0.0223,-0.0219,-0.0196,-0.0195,-0.021,-0.0196,-0.0193,-0.0188,-0.0176,-0.0175,-0.0183,-0.0183,-0.0165,-0.0163,-0.0161,-0.0147,-0.0154,-0.0154,-0.0153,-0.012,-0.012,-0.0119,0,0,0,0,0,0,-0.0224,-0.0221,-0.0197,-0.0207,-0.0204,-0.0195,-0.0189,-0.0188,-0.0184,-0.0174,-0.0172,-0.018,-0.0165,-0.0162,-0.0151,-0.0146,-0.0153,-0.0152,-0.0121,-0.012,-0.012,-0.012,0,0,0,0,0,0,-0.0225,-0.0221,-0.0218,-0.0207,-0.0203,-0.0188,-0.0189,-0.0187,-0.0182,-0.0182,-0.0171,-0.017,-0.0165,-0.0152,-0.015,-0.0145,-0.0152,-0.0121,-0.012,-0.012,-0.012,-0.0119,-0.0119,0,0,0,0,0,-0.0226,-0.022,-0.0218,-0.0215,-0.0199,-0.0188,-0.0186,-0.018,-0.0182,-0.0178,-0.0171,-0.017,-0.0147,-0.0151,-0.0149,-0.0143,-0.0121,-0.0121,-0.012,-0.012,-0.0119,-0.0119,0,0,0,0,0,0,-0.0231,-0.0218,-0.0216,-0.0207,-0.0198,-0.0187,-0.0182,-0.018,-0.0171,-0.0172,-0.0165,-0.0163,-0.0151,-0.0146,-0.0151,-0.0131,-0.0134,-0.0133,-0.0135,-0.0134,-0.0134,-0.0135,-0.0151,0,0,0,0,0,-0.0231,-0.0223,-0.0212,-0.0204,-0.02,-0.0192,-0.0187,-0.0183,-0.0174,-0.0171,-0.0164,-0.0155,-0.0145,-0.014,-0.0131,-0.0119,-0.0116,-0.0114,-0.0113,-0.0112,-0.0111,-0.0102,-0.0101,-0.0117,-0.0117,-0.0117,0,0,-0.0231,-0.0223,-0.0219,-0.0205,-0.0198,-0.0189,-0.0189,-0.018,-0.0173,-0.017,-0.0158,-0.0152,-0.0142,-0.013,-0.0124,-0.0125,-0.0106,-0.0111,-0.0111,-0.011,-0.0101,-0.01,-0.0099,-0.0117,-0.0117,-0.0117,0,0,-0.0227,-0.022,-0.0212,-0.0205,-0.0194,-0.0188,-0.0185,-0.0174,-0.017,-0.0158,-0.0154,-0.0145,-0.013,-0.0122,-0.0116,-0.0105,-0.0103,-0.0102,-0.0098,-0.009,-0.0088,-0.0087,-0.0082,-0.008,-0.0101,-0.0101,-0.0101,0,-0.0228,-0.0215,-0.0208,-0.0199,-0.0192,-0.0187,-0.0178,-0.0171,-0.0158,-0.0153,-0.0154,-0.0133,-0.0126,-0.011,-0.0107,-0.0103,-0.0099,-0.0104,-0.0089,-0.0088,-0.0086,-0.0081,-0.0079,-0.0101,-0.0101,-0.0101,-0.0101,0,-0.0217,-0.0207,-0.0202,-0.0188,-0.0181,-0.0172,-0.0162,-0.0156,-0.0151,-0.0145,-0.0131,-0.0122,-0.011,-0.0106,-0.0103,-0.009,-0.009,-0.009,-0.0093,-0.0085,-0.008,-0.0078,-0.0101,-0.0101,-0.0101,-0.0101,0,0,-0.0217,-0.0198,-0.0196,-0.0188,-0.0174,-0.0167,-0.0156,-0.0143,-0.0137,-0.0127,-0.0117,-0.0103,-0.0102,-0.0095,-0.009,-0.0083,-0.0072,-0.0083,-0.0083,-0.008,-0.0055,-0.0055,-0.0052,-0.007,-0.007,-0.007,-0.0055,0,-0.021,-0.0192,-0.0184,-0.0168,-0.0158,-0.0152,-0.0142,-0.0132,-0.0125,-0.0115,-0.0107,-0.0096,-0.0096,-0.0091,-0.0084,-0.0075,-0.0067,-0.0076,-0.006,-0.006,-0.0063,-0.005,-0.005,-0.0038,-0.0053,-0.0053,-0.0053,0,-0.0201,-0.0189,-0.0173,-0.0157,-0.0153,-0.0145,-0.0131,-0.0122,-0.0109,-0.0104,-0.0095,-0.009,-0.0077,-0.008,-0.0061,-0.0068,-0.006,-0.0055,-0.0054,-0.0052,-0.0056,-0.0047,-0.0033,-0.0031,-0.005,-0.005,-0.005,0,-0.0201,-0.0182,-0.0169,-0.0163,-0.0145,-0.0139,-0.0131,-0.0118,-0.011,-0.0098,-0.0093,-0.0079,-0.0072,-0.0061,-0.0052,-0.0055,-0.0034,-0.0036,-0.0029,-0.0029,-0.0025,-0.0025,-0.0009,-0.0021,-0.0021,-0.0021,-0.0021,0,-0.0194,-0.0184,-0.0168,-0.016,-0.0148,-0.0138,-0.0126,-0.0117,-0.0106,-0.0095,-0.0088,-0.0078,-0.0067,-0.0055,-0.0048,-0.0033,-0.003,-0.0025,-0.0023,-0.0025,-0.0025,-0.002,-0.0021,-0.002,-0.0021,-0.0021,-0.0021,0,-0.0193,-0.0183,-0.0167,-0.0151,-0.0146,-0.0138,-0.0123,-0.0114,-0.0105,-0.0092,-0.0088,-0.0075,-0.006,-0.0049,-0.0031,-0.0026,-0.0009,-0.0008,-0.0013,-0.0012,-0.0005,-0.0005,0.0016,0.002,0.0005,0.0005,0.0005,0,-0.019,-0.0181,-0.0163,-0.0155,-0.0147,-0.0134,-0.0125,-0.0114,-0.0105,-0.0089,-0.0081,-0.0066,-0.0053,-0.003,-0.0018,-0.0003,-0.0001,0.0006,0.0001,-0.0,0.0001,0.0,0.0002,0.0006,0.0006,0.0006,0.0006,0,-0.0184,-0.0178,-0.0166,-0.015,-0.0139,-0.0127,-0.0115,-0.0108,-0.0095,-0.0085,-0.0069,-0.0059,-0.0039,-0.0023,-0.0006,0.0002,0.0007,0.0008,0.0011,0.0009,0.0005,0.0009,-0.0011,0.0007,0.0007,0.0007,0.0007,0.0007,-0.0181,-0.0172,-0.0157,-0.0142,-0.0131,-0.0119,-0.0109,-0.0098,-0.0085,-0.0067,-0.0061,-0.0045,-0.0029,-0.0006,0.0003,0.0017,0.0017,0.002,0.0021,0.0022,0.0023,0.0003,0.002,0.002,0.002,0.002,0.002,0,-0.0173,-0.0163,-0.0149,-0.0131,-0.0119,-0.0115,-0.01,-0.009,-0.0075,-0.0061,-0.0048,-0.0028,-0.0012,0.0002,0.0019,0.0027,0.003,0.0032,0.0031,0.0034,0.0021,0.0018,0.0029,0.0029,0.0029,0.0029,0.0029,0.0029,-0.0168,-0.0153,-0.0145,-0.0122,-0.0112,-0.0095,-0.0086,-0.0074,-0.0063,-0.0041,-0.0027,-0.0018,-0.0003,0.0016,0.0031,0.0035,0.0042,0.0043,0.0047,0.0035,0.0034,0.0033,0.003,0.0044,0.0044,0.0058,0.0058,0.0059]}]]